Time,TemperatureF,DewpointF,PressureIn,WindDirection,WindDirectionDegrees,WindSpeedMPH,WindSpeedGustMPH,Humidity,HourlyPrecipIn,Conditions,Clouds,dailyrainin,SoftwareType,DateUTC
2013-05-26 00:00:00,44.9,35.4,30.38,East,80,0.0,0.0,69,0.00,,---,0.00,VWS V14.00,2013-05-26 04:00:00,
2013-05-26 00:01:00,44.7,35.5,30.38,East,80,0.0,0.0,70,0.00,,---,0.00,VWS V14.00,2013-05-26 04:01:00,
2013-05-26 00:06:00,44.3,35.5,30.37,East,80,0.0,0.0,71,0.00,,---,0.00,VWS V14.00,2013-05-26 04:06:00,
2013-05-26 00:11:00,44.0,35.2,30.37,East,80,0.0,0.0,71,0.00,,---,0.00,VWS V14.00,2013-05-26 04:11:00,
2013-05-26 00:16:00,43.7,35.3,30.37,East,80,0.0,0.0,72,0.00,,---,0.00,VWS V14.00,2013-05-26 04:16:00,
2013-05-26 00:21:00,43.5,35.1,30.37,East,80,0.0,0.0,72,0.00,,---,0.00,VWS V14.00,2013-05-26 04:21:00,
2013-05-26 00:26:00,43.3,35.9,30.37,East,80,0.0,0.0,75,0.00,,---,0.00,VWS V14.00,2013-05-26 04:26:00,
2013-05-26 00:27:00,43.2,35.8,30.37,East,80,0.0,0.0,75,0.00,,---,0.00,VWS V14.00,2013-05-26 04:27:00,
2013-05-26 00:30:00,43.2,35.8,30.37,East,80,0.0,0.0,75,0.00,,---,0.00,VWS V14.00,2013-05-26 04:30:00,
2013-05-26 00:36:00,42.8,36.4,30.37,East,80,0.0,0.0,78,0.00,,---,0.00,VWS V14.00,2013-05-26 04:36:00,
2013-05-26 00:41:00,42.8,36.1,30.37,East,80,0.0,0.0,77,0.00,,---,0.00,VWS V14.00,2013-05-26 04:41:00,
2013-05-26 00:46:00,42.7,36.0,30.37,East,80,0.0,0.0,77,0.00,,---,0.00,VWS V14.00,2013-05-26 04:46:00,
2013-05-26 00:51:00,42.9,36.5,30.37,East,80,0.0,0.0,78,0.00,,---,0.00,VWS V14.00,2013-05-26 04:51:00,
2013-05-26 00:56:00,42.9,36.5,30.37,East,80,0.0,0.0,78,0.00,,---,0.00,VWS V14.00,2013-05-26 04:56:00,
2013-05-26 01:00:00,42.9,36.5,30.37,East,80,0.0,0.0,78,0.00,,---,0.00,VWS V14.00,2013-05-26 05:00:00,
2013-05-26 01:01:00,42.8,36.1,30.37,East,80,0.0,0.0,77,0.00,,---,0.00,VWS V14.00,2013-05-26 05:01:00,
2013-05-26 01:06:00,42.6,36.2,30.37,East,80,0.0,0.0,78,0.00,,---,0.00,VWS V14.00,2013-05-26 05:06:00,
2013-05-26 01:11:00,42.4,36.7,30.37,East,80,0.0,0.0,80,0.00,,---,0.00,VWS V14.00,2013-05-26 05:11:00,
2013-05-26 01:16:00,42.4,37.6,30.37,East,80,0.0,0.0,83,0.00,,---,0.00,VWS V14.00,2013-05-26 05:16:00,
2013-05-26 01:21:00,42.3,37.2,30.37,East,80,0.0,0.0,82,0.00,,---,0.00,VWS V14.00,2013-05-26 05:21:00,
2013-05-26 01:26:00,42.1,37.0,30.37,East,80,0.0,0.0,82,0.00,,---,0.00,VWS V14.00,2013-05-26 05:26:00,
2013-05-26 01:30:00,42.0,37.2,30.37,East,80,0.0,0.0,83,0.00,,---,0.00,VWS V14.00,2013-05-26 05:30:00,
2013-05-26 01:31:00,41.9,37.1,30.37,East,80,0.0,0.0,83,0.00,,---,0.00,VWS V14.00,2013-05-26 05:31:00,
2013-05-26 01:36:00,41.7,37.2,30.37,East,80,0.0,0.0,84,0.00,,---,0.00,VWS V14.00,2013-05-26 05:36:00,
2013-05-26 01:41:00,41.5,37.0,30.37,East,79,0.0,0.0,84,0.00,,---,0.00,VWS V14.00,2013-05-26 05:41:00,
2013-05-26 01:46:00,41.4,36.9,30.37,East,80,0.0,0.0,84,0.00,,---,0.00,VWS V14.00,2013-05-26 05:46:00,
2013-05-26 01:51:00,41.6,37.4,30.36,East,80,0.0,0.0,85,0.00,,---,0.00,VWS V14.00,2013-05-26 05:51:00,
2013-05-26 01:56:00,41.7,37.2,30.36,East,80,0.0,0.0,84,0.00,,---,0.00,VWS V14.00,2013-05-26 05:56:00,
2013-05-26 02:00:00,41.7,37.2,30.36,East,80,0.0,0.0,84,0.00,,---,0.00,VWS V14.00,2013-05-26 06:00:00,
2013-05-26 02:01:00,41.8,37.3,30.36,East,79,0.0,0.0,84,0.00,,---,0.00,VWS V14.00,2013-05-26 06:01:00,
2013-05-26 02:06:00,41.6,37.1,30.36,East,80,0.0,0.0,84,0.00,,---,0.00,VWS V14.00,2013-05-26 06:06:00,
2013-05-26 02:11:00,41.6,37.4,30.36,East,80,0.0,0.0,85,0.00,,---,0.00,VWS V14.00,2013-05-26 06:11:00,
2013-05-26 02:16:00,41.9,37.7,30.36,East,80,0.0,0.0,85,0.00,,---,0.00,VWS V14.00,2013-05-26 06:16:00,
2013-05-26 02:21:00,41.9,37.4,30.36,East,80,0.0,0.0,84,0.00,,---,0.00,VWS V14.00,2013-05-26 06:21:00,
2013-05-26 02:26:00,41.7,37.2,30.36,East,80,0.0,0.0,84,0.00,,---,0.00,VWS V14.00,2013-05-26 06:26:00,
2013-05-26 02:30:00,41.6,37.1,30.36,East,79,0.0,0.0,84,0.00,,---,0.00,VWS V14.00,2013-05-26 06:30:00,
2013-05-26 02:31:00,41.5,37.3,30.36,East,80,0.0,0.0,85,0.00,,---,0.00,VWS V14.00,2013-05-26 06:31:00,
2013-05-26 02:36:00,41.5,37.3,30.36,East,80,0.0,0.0,85,0.00,,---,0.00,VWS V14.00,2013-05-26 06:36:00,
2013-05-26 02:41:00,41.4,37.5,30.36,East,80,0.0,0.0,86,0.00,,---,0.00,VWS V14.00,2013-05-26 06:41:00,
2013-05-26 02:46:00,40.9,36.8,30.36,East,80,0.0,0.0,85,0.00,,---,0.00,VWS V14.00,2013-05-26 06:46:00,
2013-05-26 02:51:00,40.6,36.8,30.36,East,80,0.0,0.0,86,0.00,,---,0.00,VWS V14.00,2013-05-26 06:51:00,
2013-05-26 02:56:00,40.5,37.2,30.35,East,80,0.0,0.0,88,0.00,,---,0.00,VWS V14.00,2013-05-26 06:56:00,
2013-05-26 03:00:00,40.5,37.2,30.35,East,80,0.0,0.0,88,0.00,,---,0.00,VWS V14.00,2013-05-26 07:00:00,
2013-05-26 03:01:00,40.4,37.1,30.35,East,80,0.0,0.0,88,0.00,,---,0.00,VWS V14.00,2013-05-26 07:01:00,
2013-05-26 03:06:00,40.4,37.1,30.35,East,80,0.0,0.0,88,0.00,,---,0.00,VWS V14.00,2013-05-26 07:06:00,
2013-05-26 03:11:00,40.2,36.7,30.35,East,80,0.0,0.0,87,0.00,,---,0.00,VWS V14.00,2013-05-26 07:11:00,
2013-05-26 03:16:00,39.9,36.3,30.35,East,80,0.0,0.0,87,0.00,,---,0.00,VWS V14.00,2013-05-26 07:16:00,
2013-05-26 03:21:00,39.7,36.4,30.35,East,80,0.0,0.0,88,0.00,,---,0.00,VWS V14.00,2013-05-26 07:21:00,
2013-05-26 03:26:00,39.5,36.5,30.35,East,80,0.0,0.0,89,0.00,,---,0.00,VWS V14.00,2013-05-26 07:26:00,
2013-05-26 03:30:00,39.4,36.4,30.35,East,80,0.0,0.0,89,0.00,,---,0.00,VWS V14.00,2013-05-26 07:30:00,
2013-05-26 03:31:00,39.5,36.5,30.35,East,80,0.0,0.0,89,0.00,,---,0.00,VWS V14.00,2013-05-26 07:31:00,
2013-05-26 03:36:00,39.5,36.8,30.35,East,80,0.0,0.0,90,0.00,,---,0.00,VWS V14.00,2013-05-26 07:36:00,
2013-05-26 03:41:00,39.8,37.1,30.35,East,80,0.0,0.0,90,0.00,,---,0.00,VWS V14.00,2013-05-26 07:41:00,
2013-05-26 03:46:00,40.2,37.5,30.35,East,80,0.0,1.0,90,0.00,,---,0.00,VWS V14.00,2013-05-26 07:46:00,
2013-05-26 03:51:00,40.5,37.8,30.35,East,80,0.0,1.0,90,0.00,,---,0.00,VWS V14.00,2013-05-26 07:51:00,
2013-05-26 03:56:00,40.7,38.0,30.35,East,80,0.0,1.0,90,0.00,,---,0.00,VWS V14.00,2013-05-26 07:56:00,
2013-05-26 04:00:00,40.8,38.1,30.35,East,80,1.0,1.0,90,0.00,,---,0.00,VWS V14.00,2013-05-26 08:00:00,
2013-05-26 04:01:00,41.0,38.3,30.35,East,79,2.0,2.0,90,0.00,,---,0.00,VWS V14.00,2013-05-26 08:01:00,
2013-05-26 04:06:00,41.3,38.3,30.36,East,79,0.0,2.0,89,0.00,,---,0.00,VWS V14.00,2013-05-26 08:06:00,
2013-05-26 04:11:00,41.3,38.3,30.36,ENE,74,0.0,2.0,89,0.00,,---,0.00,VWS V14.00,2013-05-26 08:11:00,
2013-05-26 04:16:00,41.4,38.7,30.36,NNE,24,0.0,2.0,90,0.00,,---,0.00,VWS V14.00,2013-05-26 08:16:00,
2013-05-26 04:21:00,41.4,38.4,30.36,NNE,24,0.0,2.0,89,0.00,,---,0.00,VWS V14.00,2013-05-26 08:21:00,
2013-05-26 04:26:00,41.2,38.2,30.36,NNE,24,0.0,2.0,89,0.00,,---,0.00,VWS V14.00,2013-05-26 08:26:00,
2013-05-26 04:30:00,41.2,38.2,30.36,NNE,24,0.0,2.0,89,0.00,,---,0.00,VWS V14.00,2013-05-26 08:30:00,
2013-05-26 04:31:00,41.1,38.1,30.36,NNE,24,1.0,2.0,89,0.00,,---,0.00,VWS V14.00,2013-05-26 08:31:00,
2013-05-26 04:36:00,41.0,38.0,30.36,NNE,23,0.0,2.0,89,0.00,,---,0.00,VWS V14.00,2013-05-26 08:36:00,
2013-05-26 04:41:00,40.9,37.9,30.36,NNE,24,0.0,2.0,89,0.00,,---,0.00,VWS V14.00,2013-05-26 08:41:00,
2013-05-26 04:46:00,40.8,38.1,30.36,NNE,23,0.0,2.0,90,0.00,,---,0.00,VWS V14.00,2013-05-26 08:46:00,
2013-05-26 04:51:00,40.9,38.2,30.36,NNE,24,0.0,2.0,90,0.00,,---,0.00,VWS V14.00,2013-05-26 08:51:00,
2013-05-26 04:56:00,40.8,38.1,30.36,NNE,24,0.0,2.0,90,0.00,,---,0.00,VWS V14.00,2013-05-26 08:56:00,
2013-05-26 05:00:00,40.8,38.1,30.36,NNE,23,1.0,2.0,90,0.00,,---,0.00,VWS V14.00,2013-05-26 09:00:00,
2013-05-26 05:01:00,40.7,38.0,30.36,NNE,23,0.0,1.0,90,0.00,,---,0.00,VWS V14.00,2013-05-26 09:01:00,
2013-05-26 05:06:00,40.7,38.3,30.36,NNE,23,0.0,1.0,91,0.00,,---,0.00,VWS V14.00,2013-05-26 09:06:00,
2013-05-26 05:11:00,40.6,38.2,30.36,NNE,24,1.0,1.0,91,0.00,,---,0.00,VWS V14.00,2013-05-26 09:11:00,
2013-05-26 05:16:00,40.5,38.1,30.36,NNE,24,0.0,2.0,91,0.00,,---,0.00,VWS V14.00,2013-05-26 09:16:00,
2013-05-26 05:21:00,40.4,38.0,30.36,NNE,23,0.0,2.0,91,0.00,,---,0.00,VWS V14.00,2013-05-26 09:21:00,
2013-05-26 05:26:00,40.4,38.0,30.36,NNE,23,0.0,2.0,91,0.00,,---,0.00,VWS V14.00,2013-05-26 09:26:00,
2013-05-26 05:30:00,40.4,38.0,30.36,NNE,24,0.0,2.0,91,0.00,,---,0.00,VWS V14.00,2013-05-26 09:30:00,
2013-05-26 05:31:00,40.4,38.0,30.36,NNE,24,0.0,1.0,91,0.00,,---,0.00,VWS V14.00,2013-05-26 09:31:00,
2013-05-26 05:36:00,40.5,38.4,30.36,NNE,24,1.0,2.0,92,0.00,,---,0.00,VWS V14.00,2013-05-26 09:36:00,
2013-05-26 05:41:00,40.5,38.4,30.37,NNE,15,0.0,3.0,92,0.00,,---,0.00,VWS V14.00,2013-05-26 09:41:00,
2013-05-26 05:47:00,40.5,38.4,30.37,NNE,15,0.0,3.0,92,0.00,,---,0.00,VWS V14.00,2013-05-26 09:47:00,
2013-05-26 05:52:00,40.5,38.1,30.37,NNE,15,0.0,3.0,91,0.00,,---,0.00,VWS V14.00,2013-05-26 09:52:00,
2013-05-26 05:57:00,40.4,38.0,30.37,NNE,15,0.0,3.0,91,0.00,,---,0.00,VWS V14.00,2013-05-26 09:57:00,
2013-05-26 06:00:00,40.3,37.9,30.37,NNE,15,0.0,3.0,91,0.00,,---,0.00,VWS V14.00,2013-05-26 10:00:00,
2013-05-26 06:02:00,40.1,37.7,30.37,NNE,15,0.0,1.0,91,0.00,,---,0.00,VWS V14.00,2013-05-26 10:02:00,
2013-05-26 06:07:00,39.9,37.5,30.37,NNE,15,0.0,1.0,91,0.00,,---,0.00,VWS V14.00,2013-05-26 10:07:00,
2013-05-26 06:12:00,39.8,37.7,30.37,NNE,15,0.0,1.0,92,0.00,,---,0.00,VWS V14.00,2013-05-26 10:12:00,
2013-05-26 06:17:00,39.8,37.7,30.37,NNE,15,0.0,1.0,92,0.00,,---,0.00,VWS V14.00,2013-05-26 10:17:00,
2013-05-26 06:22:00,39.8,37.7,30.37,NNE,15,0.0,1.0,92,0.00,,---,0.00,VWS V14.00,2013-05-26 10:22:00,
2013-05-26 06:27:00,39.8,37.7,30.37,NNE,15,0.0,1.0,92,0.00,,---,0.00,VWS V14.00,2013-05-26 10:27:00,
2013-05-26 06:30:00,39.8,37.7,30.38,NNE,15,0.0,1.0,92,0.00,,---,0.00,VWS V14.00,2013-05-26 10:30:00,
2013-05-26 06:32:00,39.9,37.8,30.38,NNE,15,0.0,1.0,92,0.00,,---,0.00,VWS V14.00,2013-05-26 10:32:00,
2013-05-26 06:37:00,39.8,37.7,30.38,NNE,15,0.0,1.0,92,0.00,,---,0.00,VWS V14.00,2013-05-26 10:37:00,
2013-05-26 06:42:00,39.9,37.8,30.38,NNE,15,0.0,1.0,92,0.00,,---,0.00,VWS V14.00,2013-05-26 10:42:00,
2013-05-26 06:47:00,40.0,37.9,30.38,NNE,15,0.0,1.0,92,0.00,,---,0.00,VWS V14.00,2013-05-26 10:47:00,
2013-05-26 06:52:00,40.2,38.1,30.38,NNE,15,0.0,2.0,92,0.00,,---,0.00,VWS V14.00,2013-05-26 10:52:00,
2013-05-26 06:57:00,40.5,38.4,30.38,NNE,15,0.0,2.0,92,0.00,,---,0.00,VWS V14.00,2013-05-26 10:57:00,
2013-05-26 07:00:00,40.6,38.5,30.38,NNE,15,0.0,2.0,92,0.00,,---,0.00,VWS V14.00,2013-05-26 11:00:00,
2013-05-26 07:02:00,40.9,38.8,30.38,NNW,332,0.0,3.0,92,0.00,,---,0.00,VWS V14.00,2013-05-26 11:02:00,
2013-05-26 07:07:00,41.3,39.2,30.38,NNW,330,1.0,3.0,92,0.00,,---,0.00,VWS V14.00,2013-05-26 11:07:00,
2013-05-26 07:12:00,41.6,39.2,30.39,NNW,330,2.0,3.0,91,0.00,,---,0.00,VWS V14.00,2013-05-26 11:12:00,
2013-05-26 07:17:00,42.0,39.6,30.39,NNW,330,1.0,3.0,91,0.00,,---,0.00,VWS V14.00,2013-05-26 11:17:00,
2013-05-26 07:22:00,42.4,39.7,30.39,NW,313,3.0,4.0,90,0.00,,---,0.00,VWS V14.00,2013-05-26 11:22:00,
2013-05-26 07:27:00,43.0,40.0,30.39,NW,312,0.0,4.0,89,0.00,,---,0.00,VWS V14.00,2013-05-26 11:27:00,
2013-05-26 07:30:00,43.1,40.1,30.39,NW,313,0.0,4.0,89,0.00,,---,0.00,VWS V14.00,2013-05-26 11:30:00,
2013-05-26 07:32:00,43.6,40.0,30.39,NW,312,0.0,4.0,87,0.00,,---,0.00,VWS V14.00,2013-05-26 11:32:00,
2013-05-26 07:37:00,44.1,39.9,30.39,NW,312,0.0,4.0,85,0.00,,---,0.00,VWS V14.00,2013-05-26 11:37:00,
2013-05-26 07:42:00,44.6,40.1,30.39,NW,313,0.0,4.0,84,0.00,,---,0.00,VWS V14.00,2013-05-26 11:42:00,
2013-05-26 07:47:00,45.2,40.3,30.39,NW,313,0.0,4.0,83,0.00,,---,0.00,VWS V14.00,2013-05-26 11:47:00,
2013-05-26 07:52:00,45.9,41.0,30.39,NW,312,0.0,4.0,83,0.00,,---,0.00,VWS V14.00,2013-05-26 11:52:00,
2013-05-26 07:57:00,46.4,41.2,30.39,NW,313,0.0,4.0,82,0.00,,---,0.00,VWS V14.00,2013-05-26 11:57:00,
2013-05-26 08:00:00,46.4,41.2,30.39,NW,313,0.0,4.0,82,0.00,,---,0.00,VWS V14.00,2013-05-26 12:00:00,
2013-05-26 08:02:00,47.1,41.3,30.39,NW,313,1.0,3.0,80,0.00,,---,0.00,VWS V14.00,2013-05-26 12:02:00,
2013-05-26 08:07:00,47.7,41.2,30.39,NW,313,2.0,3.0,78,0.00,,---,0.00,VWS V14.00,2013-05-26 12:07:00,
2013-05-26 08:12:00,48.2,41.7,30.39,NW,313,1.0,4.0,78,0.00,,---,0.00,VWS V14.00,2013-05-26 12:12:00,
2013-05-26 08:17:00,48.8,42.6,30.40,NW,313,0.0,4.0,79,0.00,,---,0.00,VWS V14.00,2013-05-26 12:17:00,
2013-05-26 08:22:00,49.7,41.8,30.40,NW,313,1.0,4.0,74,0.00,,---,0.00,VWS V14.00,2013-05-26 12:22:00,
2013-05-26 08:27:00,50.3,41.6,30.39,NNE,17,4.0,6.0,72,0.00,,---,0.00,VWS V14.00,2013-05-26 12:27:00,
2013-05-26 08:30:00,50.3,41.6,30.39,NNE,15,4.0,6.0,72,0.00,,---,0.00,VWS V14.00,2013-05-26 12:30:00,
2013-05-26 08:32:00,50.8,41.4,30.40,NNW,336,3.0,5.0,70,0.00,,---,0.00,VWS V14.00,2013-05-26 12:32:00,
2013-05-26 08:37:00,51.2,41.4,30.40,NNW,344,3.0,7.0,69,0.00,,---,0.00,VWS V14.00,2013-05-26 12:37:00,
2013-05-26 08:42:00,51.6,40.6,30.40,NNW,334,1.0,7.0,66,0.00,,---,0.00,VWS V14.00,2013-05-26 12:42:00,
2013-05-26 08:47:00,52.1,41.5,30.40,WNW,294,3.0,7.0,67,0.00,,---,0.00,VWS V14.00,2013-05-26 12:47:00,
2013-05-26 08:52:00,52.7,41.7,30.40,NNW,339,2.0,7.0,66,0.00,,---,0.00,VWS V14.00,2013-05-26 12:52:00,
2013-05-26 08:57:00,53.0,41.6,30.40,NW,324,3.0,7.0,65,0.00,,---,0.00,VWS V14.00,2013-05-26 12:57:00,
2013-05-26 09:00:00,53.0,41.6,30.40,NW,324,3.0,7.0,65,0.00,,---,0.00,VWS V14.00,2013-05-26 13:00:00,
2013-05-26 09:02:00,53.4,41.5,30.41,NNW,331,0.0,5.0,64,0.00,,---,0.00,VWS V14.00,2013-05-26 13:02:00,
2013-05-26 09:07:00,53.7,41.8,30.41,WNW,298,1.0,7.0,64,0.00,,---,0.00,VWS V14.00,2013-05-26 13:07:00,
2013-05-26 09:12:00,54.0,42.1,30.41,WNW,303,4.0,7.0,64,0.00,,---,0.00,VWS V14.00,2013-05-26 13:12:00,
2013-05-26 09:17:00,54.2,41.9,30.41,NW,312,2.0,7.0,63,0.00,,---,0.00,VWS V14.00,2013-05-26 13:17:00,
2013-05-26 09:22:00,54.4,41.7,30.41,NW,312,3.0,7.0,62,0.00,,---,0.00,VWS V14.00,2013-05-26 13:22:00,
2013-05-26 09:27:00,54.7,41.5,30.41,North,350,2.0,7.0,61,0.00,,---,0.00,VWS V14.00,2013-05-26 13:27:00,
2013-05-26 09:30:00,54.7,41.5,30.41,North,350,2.0,7.0,61,0.00,,---,0.00,VWS V14.00,2013-05-26 13:30:00,
2013-05-26 09:32:00,54.7,40.2,30.41,North,9,3.0,6.0,58,0.00,,---,0.00,VWS V14.00,2013-05-26 13:32:00,
2013-05-26 09:37:00,55.1,40.6,30.41,North,351,2.0,6.0,58,0.00,,---,0.00,VWS V14.00,2013-05-26 13:37:00,
2013-05-26 09:42:00,55.8,40.4,30.40,North,360,1.0,6.0,56,0.00,,---,0.00,VWS V14.00,2013-05-26 13:42:00,
2013-05-26 09:47:00,56.4,40.5,30.40,WNW,293,0.0,6.0,55,0.00,,---,0.00,VWS V14.00,2013-05-26 13:47:00,
2013-05-26 09:52:00,56.4,40.5,30.40,NNW,336,5.0,6.0,55,0.00,,---,0.00,VWS V14.00,2013-05-26 13:52:00,
2013-05-26 09:57:00,56.4,40.0,30.40,WNW,284,6.0,6.0,54,0.00,,---,0.00,VWS V14.00,2013-05-26 13:57:00,
2013-05-26 10:00:00,56.4,40.0,30.40,NNW,347,2.0,6.0,54,0.00,,---,0.00,VWS V14.00,2013-05-26 14:00:00,
2013-05-26 10:02:00,56.7,40.7,30.40,WNW,297,0.0,6.0,55,0.00,,---,0.00,VWS V14.00,2013-05-26 14:02:00,
2013-05-26 10:07:00,57.6,41.1,30.39,NW,323,1.0,6.0,54,0.00,,---,0.00,VWS V14.00,2013-05-26 14:07:00,
2013-05-26 10:12:00,57.9,40.9,30.39,NW,315,1.0,6.0,53,0.00,,---,0.00,VWS V14.00,2013-05-26 14:12:00,
2013-05-26 10:17:00,58.2,41.2,30.38,North,355,1.0,6.0,53,0.00,,---,0.00,VWS V14.00,2013-05-26 14:17:00,
2013-05-26 10:22:00,58.7,40.6,30.38,North,355,2.0,6.0,51,0.00,,---,0.00,VWS V14.00,2013-05-26 14:22:00,
2013-05-26 10:27:00,58.5,41.0,30.39,North,11,3.0,4.0,52,0.00,,---,0.00,VWS V14.00,2013-05-26 14:27:00,
2013-05-26 10:30:00,58.6,41.0,30.39,North,11,4.0,8.0,52,0.00,,---,0.00,VWS V14.00,2013-05-26 14:30:00,
2013-05-26 10:32:00,58.2,39.2,30.39,NNW,332,3.0,9.0,49,0.00,,---,0.00,VWS V14.00,2013-05-26 14:32:00,
2013-05-26 10:37:00,58.2,39.2,30.39,North,5,2.0,9.0,49,0.00,,---,0.00,VWS V14.00,2013-05-26 14:37:00,
2013-05-26 10:42:00,58.5,39.9,30.39,NNE,22,3.0,9.0,50,0.00,,---,0.00,VWS V14.00,2013-05-26 14:42:00,
2013-05-26 10:47:00,58.9,41.8,30.39,NW,310,2.0,9.0,53,0.00,,---,0.00,VWS V14.00,2013-05-26 14:47:00,
2013-05-26 10:52:00,59.1,42.5,30.39,North,350,6.0,9.0,54,0.00,,---,0.00,VWS V14.00,2013-05-26 14:52:00,
2013-05-26 10:57:00,59.4,42.3,30.39,NNE,31,4.0,4.0,53,0.00,,---,0.00,VWS V14.00,2013-05-26 14:57:00,
2013-05-26 11:00:00,59.4,42.3,30.39,NE,38,3.0,9.0,53,0.00,,---,0.00,VWS V14.00,2013-05-26 15:00:00,
2013-05-26 11:02:00,59.7,43.0,30.39,NW,319,4.0,6.0,54,0.00,,---,0.00,VWS V14.00,2013-05-26 15:02:00,
2013-05-26 11:07:00,59.9,42.7,30.40,North,5,2.0,6.0,53,0.00,,---,0.00,VWS V14.00,2013-05-26 15:07:00,
2013-05-26 11:12:00,60.3,41.1,30.39,North,355,1.0,7.0,49,0.00,,---,0.00,VWS V14.00,2013-05-26 15:12:00,
2013-05-26 11:17:00,60.1,41.4,30.38,NW,324,1.0,7.0,50,0.00,,---,0.00,VWS V14.00,2013-05-26 15:17:00,
2013-05-26 11:22:00,60.6,42.9,30.38,WNW,295,0.0,7.0,52,0.00,,---,0.00,VWS V14.00,2013-05-26 15:22:00,
2013-05-26 11:27:00,60.2,41.5,30.38,NW,325,2.0,5.0,50,0.00,,---,0.00,VWS V14.00,2013-05-26 15:27:00,
2013-05-26 11:30:00,60.2,41.0,30.38,NNW,342,3.0,8.0,49,0.00,,---,0.00,VWS V14.00,2013-05-26 15:30:00,
2013-05-26 11:32:00,60.4,41.2,30.38,NW,315,5.0,5.0,49,0.00,,---,0.00,VWS V14.00,2013-05-26 15:32:00,
2013-05-26 11:37:00,60.6,41.4,30.38,NNE,17,1.0,7.0,49,0.00,,---,0.00,VWS V14.00,2013-05-26 15:37:00,
2013-05-26 11:42:00,60.7,40.4,30.38,NE,38,2.0,7.0,47,0.00,,---,0.00,VWS V14.00,2013-05-26 15:42:00,
2013-05-26 11:47:00,61.1,42.3,30.38,NNW,327,4.0,7.0,50,0.00,,---,0.00,VWS V14.00,2013-05-26 15:47:00,
2013-05-26 11:52:00,61.5,41.7,30.38,NNE,17,5.0,7.0,48,0.00,,---,0.00,VWS V14.00,2013-05-26 15:52:00,
2013-05-26 11:57:00,61.6,39.5,30.38,NW,312,2.0,2.0,44,0.00,,---,0.00,VWS V14.00,2013-05-26 15:57:00,
2013-05-26 12:00:00,61.6,39.5,30.38,NW,306,1.0,7.0,44,0.00,,---,0.00,VWS V14.00,2013-05-26 16:00:00,
2013-05-26 12:02:00,61.9,38.6,30.38,NNE,13,2.0,6.0,42,0.00,,---,0.00,VWS V14.00,2013-05-26 16:02:00,
2013-05-26 12:07:00,62.3,40.1,30.38,North,360,2.0,6.0,44,0.00,,---,0.00,VWS V14.00,2013-05-26 16:07:00,
2013-05-26 12:12:00,62.6,41.0,30.38,North,349,5.0,6.0,45,0.00,,---,0.00,VWS V14.00,2013-05-26 16:12:00,
2013-05-26 12:17:00,62.5,42.0,30.39,NE,53,2.0,7.0,47,0.00,,---,0.00,VWS V14.00,2013-05-26 16:17:00,
2013-05-26 12:22:00,62.7,39.9,30.39,NE,34,1.0,7.0,43,0.00,,---,0.00,VWS V14.00,2013-05-26 16:22:00,
2013-05-26 12:27:00,62.7,41.1,30.39,ENE,57,2.0,2.0,45,0.00,,---,0.00,VWS V14.00,2013-05-26 16:27:00,
2013-05-26 12:30:00,62.6,41.0,30.39,ENE,57,0.0,7.0,45,0.00,,---,0.00,VWS V14.00,2013-05-26 16:30:00,
2013-05-26 12:32:00,62.5,40.3,30.39,NE,53,2.0,8.0,44,0.00,,---,0.00,VWS V14.00,2013-05-26 16:32:00,
2013-05-26 12:37:00,62.6,39.2,30.39,ESE,107,7.0,8.0,42,0.00,,---,0.00,VWS V14.00,2013-05-26 16:37:00,
2013-05-26 12:43:00,62.4,39.6,30.39,East,79,1.0,8.0,43,0.00,,---,0.00,VWS V14.00,2013-05-26 16:43:00,
2013-05-26 12:48:00,62.2,38.8,30.38,ENE,69,2.0,8.0,42,0.00,,---,0.00,VWS V14.00,2013-05-26 16:48:00,
2013-05-26 12:53:00,62.2,40.6,30.38,NNW,329,1.0,8.0,45,0.00,,---,0.00,VWS V14.00,2013-05-26 16:53:00,
2013-05-26 12:58:00,62.5,40.3,30.38,North,9,4.0,5.0,44,0.00,,---,0.00,VWS V14.00,2013-05-26 16:58:00,
2013-05-26 13:00:00,62.5,40.3,30.38,NNE,12,3.0,9.0,44,0.00,,---,0.00,VWS V14.00,2013-05-26 17:00:00,
2013-05-26 13:03:00,62.7,39.9,30.38,ESE,109,5.0,8.0,43,0.00,,---,0.00,VWS V14.00,2013-05-26 17:03:00,
2013-05-26 13:08:00,62.3,40.1,30.38,NNE,28,3.0,8.0,44,0.00,,---,0.00,VWS V14.00,2013-05-26 17:08:00,
2013-05-26 13:13:00,62.7,39.3,30.38,ENE,76,6.0,8.0,42,0.00,,---,0.00,VWS V14.00,2013-05-26 17:13:00,
2013-05-26 13:18:00,62.3,39.5,30.38,ENE,65,2.0,12.0,43,0.00,,---,0.00,VWS V14.00,2013-05-26 17:18:00,
2013-05-26 13:23:00,62.4,39.0,30.38,ENE,77,3.0,12.0,42,0.00,,---,0.00,VWS V14.00,2013-05-26 17:23:00,
2013-05-26 13:28:00,62.9,38.2,30.38,NE,53,1.0,4.0,40,0.00,,---,0.00,VWS V14.00,2013-05-26 17:28:00,
2013-05-26 13:30:00,62.9,38.2,30.38,NNE,19,2.0,12.0,40,0.00,,---,0.00,VWS V14.00,2013-05-26 17:30:00,
2013-05-26 13:33:00,63.0,39.0,30.38,ENE,64,2.0,5.0,41,0.00,,---,0.00,VWS V14.00,2013-05-26 17:33:00,
2013-05-26 13:38:00,63.1,38.4,30.38,North,355,2.0,6.0,40,0.00,,---,0.00,VWS V14.00,2013-05-26 17:38:00,
2013-05-26 13:43:00,63.2,37.9,30.38,NE,55,5.0,7.0,39,0.00,,---,0.00,VWS V14.00,2013-05-26 17:43:00,
2013-05-26 13:48:00,62.9,38.2,30.37,ESE,106,7.0,9.0,40,0.00,,---,0.00,VWS V14.00,2013-05-26 17:48:00,
2013-05-26 13:53:00,62.7,38.0,30.37,East,98,6.0,9.0,40,0.00,,---,0.00,VWS V14.00,2013-05-26 17:53:00,
2013-05-26 13:58:00,62.5,37.9,30.37,ENE,77,1.0,3.0,40,0.00,,---,0.00,VWS V14.00,2013-05-26 17:58:00,
2013-05-26 14:00:00,62.4,37.8,30.37,ENE,78,2.0,9.0,40,0.00,,---,0.00,VWS V14.00,2013-05-26 18:00:00,
2013-05-26 14:03:00,63.1,37.1,30.37,NE,34,0.0,5.0,38,0.00,,---,0.00,VWS V14.00,2013-05-26 18:03:00,
2013-05-26 14:08:00,63.1,37.8,30.37,East,94,0.0,8.0,39,0.00,,---,0.00,VWS V14.00,2013-05-26 18:08:00,
2013-05-26 14:13:00,63.3,37.3,30.37,ESE,104,2.0,8.0,38,0.00,,---,0.00,VWS V14.00,2013-05-26 18:13:00,
2013-05-26 14:18:00,63.3,37.3,30.36,North,349,1.0,8.0,38,0.00,,---,0.00,VWS V14.00,2013-05-26 18:18:00,
2013-05-26 14:23:00,63.8,37.0,30.36,ESE,103,4.0,8.0,37,0.00,,---,0.00,VWS V14.00,2013-05-26 18:23:00,
2013-05-26 14:28:00,63.7,37.0,30.36,East,91,5.0,5.0,37,0.00,,---,0.00,VWS V14.00,2013-05-26 18:28:00,
2013-05-26 14:30:00,63.7,36.3,30.36,NNW,346,2.0,8.0,36,0.00,,---,0.00,VWS V14.00,2013-05-26 18:30:00,
2013-05-26 14:33:00,63.4,37.4,30.36,East,99,4.0,9.0,38,0.00,,---,0.00,VWS V14.00,2013-05-26 18:33:00,
2013-05-26 14:38:00,63.9,37.1,30.36,ESE,113,5.0,9.0,37,0.00,,---,0.00,VWS V14.00,2013-05-26 18:38:00,
2013-05-26 14:43:00,64.4,37.6,30.36,ESE,106,2.0,9.0,37,0.00,,---,0.00,VWS V14.00,2013-05-26 18:43:00,
2013-05-26 14:48:00,65.1,38.2,30.36,ENE,57,1.0,9.0,37,0.00,,---,0.00,VWS V14.00,2013-05-26 18:48:00,
2013-05-26 14:53:00,64.9,38.0,30.36,North,355,2.0,9.0,37,0.00,,---,0.00,VWS V14.00,2013-05-26 18:53:00,
2013-05-26 14:58:00,64.9,38.0,30.36,SE,128,0.0,1.0,37,0.00,,---,0.00,VWS V14.00,2013-05-26 18:58:00,
2013-05-26 15:00:00,64.9,37.3,30.36,SE,128,1.0,9.0,36,0.00,,---,0.00,VWS V14.00,2013-05-26 19:00:00,
2013-05-26 15:03:00,64.9,38.0,30.36,NNE,23,4.0,8.0,37,0.00,,---,0.00,VWS V14.00,2013-05-26 19:03:00,
2013-05-26 15:08:00,65.2,38.3,30.35,NE,44,1.0,8.0,37,0.00,,---,0.00,VWS V14.00,2013-05-26 19:08:00,
2013-05-26 15:13:00,65.7,37.3,30.35,NNE,32,2.0,8.0,35,0.00,,---,0.00,VWS V14.00,2013-05-26 19:13:00,
2013-05-26 15:18:00,65.7,37.3,30.35,NE,44,3.0,8.0,35,0.00,,---,0.00,VWS V14.00,2013-05-26 19:18:00,
2013-05-26 15:23:00,65.6,37.2,30.35,ENE,78,2.0,8.0,35,0.00,,---,0.00,VWS V14.00,2013-05-26 19:23:00,
2013-05-26 15:28:00,65.2,37.6,30.35,NE,39,1.0,5.0,36,0.00,,---,0.00,VWS V14.00,2013-05-26 19:28:00,
2013-05-26 15:30:00,65.3,37.0,30.35,East,92,5.0,8.0,35,0.00,,---,0.00,VWS V14.00,2013-05-26 19:30:00,
2013-05-26 15:33:00,65.8,37.4,30.35,ENE,66,1.0,5.0,35,0.00,,---,0.00,VWS V14.00,2013-05-26 19:33:00,
2013-05-26 15:38:00,66.3,36.4,30.35,North,5,1.0,6.0,33,0.00,,---,0.00,VWS V14.00,2013-05-26 19:38:00,
2013-05-26 15:43:00,66.3,37.1,30.35,North,360,5.0,6.0,34,0.00,,---,0.00,VWS V14.00,2013-05-26 19:43:00,
2013-05-26 15:48:00,66.1,37.7,30.34,East,101,2.0,6.0,35,0.00,,---,0.00,VWS V14.00,2013-05-26 19:48:00,
2013-05-26 15:53:00,66.1,38.4,30.34,NNW,342,1.0,6.0,36,0.00,,---,0.00,VWS V14.00,2013-05-26 19:53:00,
2013-05-26 15:58:00,66.7,37.5,30.34,ENE,62,3.0,5.0,34,0.00,,---,0.00,VWS V14.00,2013-05-26 19:58:00,
2013-05-26 16:00:00,66.5,37.3,30.34,NNW,346,0.0,6.0,34,0.00,,---,0.00,VWS V14.00,2013-05-26 20:00:00,
2013-05-26 16:03:00,66.8,37.6,30.34,NNE,20,2.0,8.0,34,0.00,,---,0.00,VWS V14.00,2013-05-26 20:03:00,
2013-05-26 16:08:00,66.9,38.4,30.33,NE,34,1.0,8.0,35,0.00,,---,0.00,VWS V14.00,2013-05-26 20:08:00,
2013-05-26 16:13:00,66.7,38.2,30.33,NE,55,3.0,8.0,35,0.00,,---,0.00,VWS V14.00,2013-05-26 20:13:00,
2013-05-26 16:18:00,65.9,38.2,30.33,East,101,6.0,9.0,36,0.00,,---,0.00,VWS V14.00,2013-05-26 20:18:00,
2013-05-26 16:23:00,65.7,38.0,30.33,North,9,3.0,9.0,36,0.00,,---,0.00,VWS V14.00,2013-05-26 20:23:00,
2013-05-26 16:28:00,65.9,38.2,30.33,NE,49,4.0,5.0,36,0.00,,---,0.00,VWS V14.00,2013-05-26 20:28:00,
2013-05-26 16:30:00,65.9,38.2,30.33,NNW,341,2.0,9.0,36,0.00,,---,0.00,VWS V14.00,2013-05-26 20:30:00,
2013-05-26 16:33:00,65.6,38.0,30.33,North,5,2.0,8.0,36,0.00,,---,0.00,VWS V14.00,2013-05-26 20:33:00,
2013-05-26 16:38:00,65.1,37.5,30.33,NE,36,2.0,8.0,36,0.00,,---,0.00,VWS V14.00,2013-05-26 20:38:00,
2013-05-26 16:43:00,64.4,38.3,30.33,East,98,0.0,8.0,38,0.00,,---,0.00,VWS V14.00,2013-05-26 20:43:00,
2013-05-26 16:48:00,64.8,37.9,30.32,NNE,24,0.0,8.0,37,0.00,,---,0.00,VWS V14.00,2013-05-26 20:48:00,
2013-05-26 16:53:00,65.0,37.4,30.33,NE,55,2.0,8.0,36,0.00,,---,0.00,VWS V14.00,2013-05-26 20:53:00,
2013-05-26 16:58:00,65.3,38.4,30.32,North,9,2.0,5.0,37,0.00,,---,0.00,VWS V14.00,2013-05-26 20:58:00,
2013-05-26 17:00:00,65.2,39.0,30.32,NNE,31,1.0,8.0,38,0.00,,---,0.00,VWS V14.00,2013-05-26 21:00:00,
2013-05-26 17:03:00,65.4,39.2,30.32,NE,35,2.0,6.0,38,0.00,,---,0.00,VWS V14.00,2013-05-26 21:03:00,
2013-05-26 17:08:00,65.7,39.4,30.32,NE,54,2.0,7.0,38,0.00,,---,0.00,VWS V14.00,2013-05-26 21:08:00,
2013-05-26 17:13:00,66.0,39.0,30.32,NNE,30,0.0,7.0,37,0.00,,---,0.00,VWS V14.00,2013-05-26 21:13:00,
2013-05-26 17:18:00,66.3,39.3,30.32,East,82,3.0,7.0,37,0.00,,---,0.00,VWS V14.00,2013-05-26 21:18:00,
2013-05-26 17:23:00,66.1,39.8,30.32,East,80,2.0,7.0,38,0.00,,---,0.00,VWS V14.00,2013-05-26 21:23:00,
2013-05-26 17:28:00,65.8,39.5,30.32,ENE,67,0.0,5.0,38,0.00,,---,0.00,VWS V14.00,2013-05-26 21:28:00,
2013-05-26 17:30:00,65.8,38.8,30.32,North,355,0.0,7.0,37,0.00,,---,0.00,VWS V14.00,2013-05-26 21:30:00,
2013-05-26 17:33:00,65.9,38.9,30.32,ENE,63,1.0,5.0,37,0.00,,---,0.00,VWS V14.00,2013-05-26 21:33:00,
2013-05-26 17:38:00,65.1,38.9,30.32,East,94,0.0,5.0,38,0.00,,---,0.00,VWS V14.00,2013-05-26 21:38:00,
2013-05-26 17:43:00,64.6,39.8,30.31,North,5,2.0,5.0,40,0.00,,---,0.00,VWS V14.00,2013-05-26 21:43:00,
2013-05-26 17:48:00,64.2,38.8,30.31,NE,36,3.0,5.0,39,0.00,,---,0.00,VWS V14.00,2013-05-26 21:48:00,
2013-05-26 17:53:00,63.8,39.0,30.31,East,81,1.0,5.0,40,0.00,,---,0.00,VWS V14.00,2013-05-26 21:53:00,
2013-05-26 17:58:00,64.1,39.9,30.31,NE,47,0.0,5.0,41,0.00,,---,0.00,VWS V14.00,2013-05-26 21:58:00,
2013-05-26 18:03:00,64.4,39.6,30.31,NE,47,0.0,5.0,40,0.00,,---,0.00,VWS V14.00,2013-05-26 22:03:00,
2013-05-26 18:08:00,64.3,40.1,30.31,East,91,5.0,5.0,41,0.00,,---,0.00,VWS V14.00,2013-05-26 22:08:00,
2013-05-26 18:13:00,64.0,41.1,30.31,ENE,77,1.0,5.0,43,0.00,,---,0.00,VWS V14.00,2013-05-26 22:13:00,
2013-05-26 18:19:00,63.8,42.1,30.31,East,94,6.0,6.0,45,0.00,,---,0.00,VWS V14.00,2013-05-26 22:19:00,
2013-05-26 18:24:00,63.6,42.5,30.31,NE,44,1.0,6.0,46,0.00,,---,0.00,VWS V14.00,2013-05-26 22:24:00,
2013-05-26 18:29:00,63.5,42.4,30.31,NE,36,0.0,2.0,46,0.00,,---,0.00,VWS V14.00,2013-05-26 22:29:00,
2013-05-26 18:30:00,63.6,43.0,30.31,NE,36,0.0,6.0,47,0.00,,---,0.00,VWS V14.00,2013-05-26 22:30:00,
2013-05-26 18:34:00,63.3,42.8,30.31,NE,34,2.0,3.0,47,0.00,,---,0.00,VWS V14.00,2013-05-26 22:34:00,
2013-05-26 18:39:00,63.0,43.0,30.31,NE,36,1.0,3.0,48,0.00,,---,0.00,VWS V14.00,2013-05-26 22:39:00,
2013-05-26 18:44:00,62.8,42.8,30.30,ENE,68,0.0,3.0,48,0.00,,---,0.00,VWS V14.00,2013-05-26 22:44:00,
2013-05-26 18:49:00,62.7,43.3,30.30,NE,43,0.0,5.0,49,0.00,,---,0.00,VWS V14.00,2013-05-26 22:49:00,
2013-05-26 18:54:00,62.5,43.6,30.30,NE,51,1.0,5.0,50,0.00,,---,0.00,VWS V14.00,2013-05-26 22:54:00,
2013-05-26 18:59:00,62.2,43.3,30.30,NE,38,1.0,4.0,50,0.00,,---,0.00,VWS V14.00,2013-05-26 22:59:00,
2013-05-26 19:00:00,62.2,43.3,30.30,NE,52,2.0,5.0,50,0.00,,---,0.00,VWS V14.00,2013-05-26 23:00:00,
2013-05-26 19:04:00,62.0,43.7,30.30,NE,34,0.0,4.0,51,0.00,,---,0.00,VWS V14.00,2013-05-26 23:04:00,
2013-05-26 19:09:00,61.8,44.0,30.30,ENE,65,1.0,4.0,52,0.00,,---,0.00,VWS V14.00,2013-05-26 23:09:00,
2013-05-26 19:14:00,61.6,43.8,30.30,NE,53,0.0,5.0,52,0.00,,---,0.00,VWS V14.00,2013-05-26 23:14:00,
2013-05-26 19:19:00,61.6,43.8,30.30,NNE,28,0.0,5.0,52,0.00,,---,0.00,VWS V14.00,2013-05-26 23:19:00,
2013-05-26 19:24:00,61.4,43.6,30.30,North,9,3.0,5.0,52,0.00,,---,0.00,VWS V14.00,2013-05-26 23:24:00,
2013-05-26 19:29:00,61.2,44.4,30.30,North,5,0.0,3.0,54,0.00,,---,0.00,VWS V14.00,2013-05-26 23:29:00,
2013-05-26 19:30:00,61.2,44.0,30.30,North,5,2.0,5.0,53,0.00,,---,0.00,VWS V14.00,2013-05-26 23:30:00,
2013-05-26 19:34:00,61.0,44.7,30.29,North,360,5.0,5.0,55,0.00,,---,0.00,VWS V14.00,2013-05-26 23:34:00,
2013-05-26 19:39:00,60.5,44.7,30.29,North,10,0.0,5.0,56,0.00,,---,0.00,VWS V14.00,2013-05-26 23:39:00,
2013-05-26 19:44:00,60.2,44.5,30.29,ENE,75,1.0,5.0,56,0.00,,---,0.00,VWS V14.00,2013-05-26 23:44:00,
2013-05-26 19:49:00,60.0,44.7,30.29,North,9,1.0,5.0,57,0.00,,---,0.00,VWS V14.00,2013-05-26 23:49:00,
2013-05-26 19:54:00,59.7,44.5,30.29,NE,48,1.0,5.0,57,0.00,,---,0.00,VWS V14.00,2013-05-26 23:54:00,
2013-05-26 19:59:00,59.6,44.8,30.29,NE,48,0.0,3.0,58,0.00,,---,0.00,VWS V14.00,2013-05-26 23:59:00,
2013-05-26 20:00:00,59.6,44.8,30.29,NE,49,0.0,5.0,58,0.00,,---,0.00,VWS V14.00,2013-05-27 00:00:00,
2013-05-26 20:04:00,59.4,44.2,30.29,NE,36,2.0,3.0,57,0.00,,---,0.00,VWS V14.00,2013-05-27 00:04:00,
2013-05-26 20:09:00,59.2,44.5,30.29,NNE,17,1.0,4.0,58,0.00,,---,0.00,VWS V14.00,2013-05-27 00:09:00,
2013-05-26 20:14:00,58.9,44.2,30.29,NE,42,1.0,4.0,58,0.00,,---,0.00,VWS V14.00,2013-05-27 00:14:00,
2013-05-26 20:19:00,58.6,44.3,30.29,NE,36,1.0,4.0,59,0.00,,---,0.00,VWS V14.00,2013-05-27 00:19:00,
2013-05-26 20:24:00,58.3,44.0,30.29,NE,39,0.0,4.0,59,0.00,,---,0.00,VWS V14.00,2013-05-27 00:24:00,
2013-05-26 20:29:00,58.0,44.2,30.29,NE,38,0.0,3.0,60,0.00,,---,0.00,VWS V14.00,2013-05-27 00:29:00,
2013-05-26 20:30:00,58.1,44.3,30.29,NE,38,2.0,4.0,60,0.00,,---,0.00,VWS V14.00,2013-05-27 00:30:00,
2013-05-26 20:34:00,57.8,44.5,30.29,NE,41,0.0,3.0,61,0.00,,---,0.00,VWS V14.00,2013-05-27 00:34:00,
2013-05-26 20:39:00,57.5,44.6,30.29,NE,41,0.0,3.0,62,0.00,,---,0.00,VWS V14.00,2013-05-27 00:39:00,
2013-05-26 20:44:00,57.3,44.4,30.29,NE,41,0.0,3.0,62,0.00,,---,0.00,VWS V14.00,2013-05-27 00:44:00,
2013-05-26 20:49:00,57.1,44.6,30.29,NE,40,0.0,3.0,63,0.00,,---,0.00,VWS V14.00,2013-05-27 00:49:00,
2013-05-26 20:54:00,56.8,44.3,30.29,NE,40,3.0,3.0,63,0.00,,---,0.00,VWS V14.00,2013-05-27 00:54:00,
2013-05-26 20:59:00,56.6,44.6,30.29,NE,40,0.0,3.0,64,0.00,,---,0.00,VWS V14.00,2013-05-27 00:59:00,
2013-05-26 21:00:00,56.7,44.3,30.29,NE,41,0.0,3.0,63,0.00,,---,0.00,VWS V14.00,2013-05-27 01:00:00,
2013-05-26 21:04:00,56.4,44.4,30.29,NE,38,0.0,3.0,64,0.00,,---,0.00,VWS V14.00,2013-05-27 01:04:00,
2013-05-26 21:09:00,56.1,44.5,30.29,NE,38,0.0,3.0,65,0.00,,---,0.00,VWS V14.00,2013-05-27 01:09:00,
2013-05-26 21:14:00,55.9,44.3,30.29,NE,40,0.0,4.0,65,0.00,,---,0.00,VWS V14.00,2013-05-27 01:14:00,
2013-05-26 21:19:00,55.7,44.5,30.29,NE,40,1.0,4.0,66,0.00,,---,0.00,VWS V14.00,2013-05-27 01:19:00,
2013-05-26 21:24:00,55.5,44.7,30.29,NE,40,0.0,4.0,67,0.00,,---,0.00,VWS V14.00,2013-05-27 01:24:00,
2013-05-26 21:29:00,55.2,44.8,30.29,NE,40,0.0,2.0,68,0.00,,---,0.00,VWS V14.00,2013-05-27 01:29:00,
2013-05-26 21:30:00,55.3,44.9,30.29,NE,40,2.0,4.0,68,0.00,,---,0.00,VWS V14.00,2013-05-27 01:30:00,
2013-05-26 21:34:00,55.0,45.0,30.29,NE,40,0.0,2.0,69,0.00,,---,0.00,VWS V14.00,2013-05-27 01:34:00,
2013-05-26 21:39:00,54.9,44.9,30.29,NE,40,0.0,2.0,69,0.00,,---,0.00,VWS V14.00,2013-05-27 01:39:00,
2013-05-26 21:44:00,54.7,45.1,30.29,NE,40,0.0,2.0,70,0.00,,---,0.00,VWS V14.00,2013-05-27 01:44:00,
2013-05-26 21:49:00,54.5,45.3,30.29,NE,40,0.0,2.0,71,0.00,,---,0.00,VWS V14.00,2013-05-27 01:49:00,
2013-05-26 21:54:00,54.4,45.2,30.29,NE,40,0.0,2.0,71,0.00,,---,0.00,VWS V14.00,2013-05-27 01:54:00,
2013-05-26 21:59:00,54.2,45.4,30.29,NE,40,0.0,1.0,72,0.00,,---,0.00,VWS V14.00,2013-05-27 01:59:00,
2013-05-26 22:00:00,54.3,45.1,30.29,NE,40,1.0,2.0,71,0.00,,---,0.00,VWS V14.00,2013-05-27 02:00:00,
2013-05-26 22:04:00,54.1,45.7,30.29,NE,40,0.0,1.0,73,0.00,,---,0.00,VWS V14.00,2013-05-27 02:04:00,
2013-05-26 22:09:00,54.0,45.5,30.29,NE,40,0.0,2.0,73,0.00,,---,0.00,VWS V14.00,2013-05-27 02:09:00,
2013-05-26 22:14:00,53.9,45.5,30.29,NE,40,0.0,2.0,73,0.00,,---,0.00,VWS V14.00,2013-05-27 02:14:00,
2013-05-26 22:19:00,53.9,45.5,30.30,NE,40,0.0,2.0,73,0.00,,---,0.00,VWS V14.00,2013-05-27 02:19:00,
2013-05-26 22:24:00,54.0,45.5,30.30,NE,40,0.0,2.0,73,0.00,,---,0.00,VWS V14.00,2013-05-27 02:24:00,
2013-05-26 22:29:00,54.2,45.4,30.30,NE,40,0.0,2.0,72,0.00,,---,0.00,VWS V14.00,2013-05-27 02:29:00,
2013-05-26 22:30:00,54.1,45.7,30.30,NE,40,1.0,2.0,73,0.00,,---,0.00,VWS V14.00,2013-05-27 02:30:00,
2013-05-26 22:34:00,54.2,45.0,30.30,NE,40,0.0,2.0,71,0.00,,---,0.00,VWS V14.00,2013-05-27 02:34:00,
2013-05-26 22:39:00,54.1,44.9,30.30,NE,40,0.0,2.0,71,0.00,,---,0.00,VWS V14.00,2013-05-27 02:39:00,
2013-05-26 22:44:00,53.9,45.1,30.30,NE,40,1.0,2.0,72,0.00,,---,0.00,VWS V14.00,2013-05-27 02:44:00,
2013-05-26 22:49:00,53.7,44.9,30.30,NE,40,0.0,2.0,72,0.00,,---,0.00,VWS V14.00,2013-05-27 02:49:00,
2013-05-26 22:54:00,53.4,44.6,30.30,NE,40,0.0,2.0,72,0.00,,---,0.00,VWS V14.00,2013-05-27 02:54:00,
2013-05-26 22:59:00,53.1,43.6,30.30,NE,40,0.0,1.0,70,0.00,,---,0.00,VWS V14.00,2013-05-27 02:59:00,
2013-05-26 23:00:00,53.2,44.0,30.30,NE,40,0.0,2.0,71,0.00,,---,0.00,VWS V14.00,2013-05-27 03:00:00,
2013-05-26 23:04:00,53.1,43.2,30.30,NE,40,0.0,2.0,69,0.00,,---,0.00,VWS V14.00,2013-05-27 03:04:00,
2013-05-26 23:09:00,53.0,43.1,30.31,NE,40,0.0,2.0,69,0.00,,---,0.00,VWS V14.00,2013-05-27 03:09:00,
2013-05-26 23:14:00,52.9,42.6,30.31,NE,40,0.0,2.0,68,0.00,,---,0.00,VWS V14.00,2013-05-27 03:14:00,
2013-05-26 23:19:00,53.0,41.6,30.30,NE,41,1.0,3.0,65,0.00,,---,0.00,VWS V14.00,2013-05-27 03:19:00,
2013-05-26 23:24:00,53.3,40.6,30.30,NE,44,1.0,3.0,62,0.00,,---,0.00,VWS V14.00,2013-05-27 03:24:00,
2013-05-26 23:29:00,53.4,39.5,30.30,NE,52,0.0,4.0,59,0.00,,---,0.00,VWS V14.00,2013-05-27 03:29:00,
2013-05-26 23:30:00,53.3,39.8,30.30,NE,45,2.0,3.0,60,0.00,,---,0.00,VWS V14.00,2013-05-27 03:30:00,
2013-05-26 23:34:00,53.4,39.0,30.30,East,80,2.0,4.0,58,0.00,,---,0.00,VWS V14.00,2013-05-27 03:34:00,
2013-05-26 23:39:00,53.2,39.3,30.30,East,80,1.0,4.0,59,0.00,,---,0.00,VWS V14.00,2013-05-27 03:39:00,
2013-05-26 23:44:00,52.9,39.4,30.30,East,80,1.0,4.0,60,0.00,,---,0.00,VWS V14.00,2013-05-27 03:44:00,
2013-05-26 23:49:00,52.6,39.1,30.30,East,80,1.0,4.0,60,0.00,,---,0.00,VWS V14.00,2013-05-27 03:49:00,
2013-05-26 23:54:00,52.3,39.3,30.30,East,80,1.0,4.0,61,0.00,,---,0.00,VWS V14.00,2013-05-27 03:54:00,
2013-05-26 23:59:00,52.2,39.2,30.31,East,80,0.0,3.0,61,0.00,,---,0.00,VWS V14.00,2013-05-27 03:59:00,